Time,TemperatureF,DewpointF,PressureIn,WindDirection,WindDirectionDegrees,WindSpeedMPH,WindSpeedGustMPH,Humidity,HourlyPrecipIn,Conditions,Clouds,dailyrainin,SoftwareType,DateUTC
2013-01-13 00:02:00,37.0,33.0,29.94,ENE,59,3.0,10.0,85,0.00,,,0.06,,2013-01-13 00:02:00,
2013-01-13 00:12:00,37.0,33.0,29.94,ENE,59,3.0,10.0,85,0.00,,,0.06,,2013-01-13 00:12:00,
2013-01-13 00:22:00,37.0,33.0,29.94,ENE,62,3.0,8.0,85,0.00,,,0.06,,2013-01-13 00:22:00,
2013-01-13 00:32:00,37.0,33.0,29.94,ENE,62,3.0,8.0,85,0.00,,,0.06,,2013-01-13 00:32:00,
2013-01-13 00:42:00,37.0,33.0,29.94,ENE,62,3.0,8.0,85,0.00,,,0.06,,2013-01-13 00:42:00,
2013-01-13 00:52:00,37.0,33.0,29.95,ENE,59,3.0,10.0,86,0.00,,,0.06,,2013-01-13 00:52:00,
2013-01-13 01:02:00,37.0,33.0,29.95,ENE,58,3.0,8.0,86,0.00,,,0.06,,2013-01-13 01:02:00,
2013-01-13 01:12:00,37.0,33.0,29.95,ENE,58,3.0,8.0,86,0.00,,,0.06,,2013-01-13 01:12:00,
2013-01-13 01:22:00,37.0,33.0,29.96,ENE,73,3.0,12.0,86,0.00,,,0.06,,2013-01-13 01:22:00,
2013-01-13 01:32:00,37.0,33.0,29.97,ENE,60,0.0,8.0,85,0.00,,,0.06,,2013-01-13 01:32:00,
2013-01-13 01:42:00,37.0,33.0,29.97,ENE,60,0.0,8.0,85,0.00,,,0.06,,2013-01-13 01:42:00,
2013-01-13 01:53:00,36.0,32.0,29.97,NE,41,3.0,6.0,85,0.00,,,0.06,,2013-01-13 01:53:00,
2013-01-13 02:02:00,36.0,32.0,29.98,ENE,67,3.0,12.0,86,0.00,,,0.06,,2013-01-13 02:02:00,
2013-01-13 02:12:00,36.0,32.0,29.98,ENE,67,3.0,12.0,86,0.00,,,0.06,,2013-01-13 02:12:00,
2013-01-13 02:22:00,36.0,32.0,29.98,ENE,58,3.0,10.0,85,0.00,,,0.06,,2013-01-13 02:22:00,
2013-01-13 02:32:00,36.0,32.0,29.99,East,100,3.0,14.0,85,0.00,,,0.06,,2013-01-13 02:32:00,
2013-01-13 02:42:00,36.0,32.0,29.99,East,100,3.0,14.0,85,0.00,,,0.06,,2013-01-13 02:42:00,
2013-01-13 02:53:00,36.0,32.0,29.99,ENE,70,3.0,10.0,84,0.00,,,0.06,,2013-01-13 02:53:00,
2013-01-13 03:02:00,36.0,32.0,29.99,ENE,70,3.0,6.0,84,0.00,,,0.06,,2013-01-13 03:02:00,
2013-01-13 03:11:00,36.0,32.0,29.99,ENE,70,3.0,6.0,84,0.00,,,0.06,,2013-01-13 03:11:00,
2013-01-13 03:22:00,36.0,31.0,29.99,East,83,6.0,12.0,83,0.00,,,0.06,,2013-01-13 03:22:00,
2013-01-13 03:32:00,36.0,31.0,29.99,East,100,6.0,16.0,83,0.00,,,0.06,,2013-01-13 03:32:00,
2013-01-13 03:42:00,36.0,31.0,29.99,East,100,6.0,16.0,83,0.00,,,0.06,,2013-01-13 03:42:00,
2013-01-13 03:52:00,36.0,31.0,29.99,East,84,6.0,12.0,83,0.00,,,0.06,,2013-01-13 03:52:00,
2013-01-13 04:02:00,36.0,31.0,30.00,ENE,71,3.0,8.0,82,0.00,,,0.06,,2013-01-13 04:02:00,
2013-01-13 04:12:00,36.0,31.0,30.00,ENE,71,3.0,8.0,82,0.00,,,0.06,,2013-01-13 04:12:00,
2013-01-13 04:22:00,36.0,31.0,30.00,East,80,3.0,10.0,81,0.00,,,0.06,,2013-01-13 04:22:00,
2013-01-13 04:32:00,36.0,31.0,30.00,ENE,77,6.0,12.0,81,0.00,,,0.06,,2013-01-13 04:32:00,
2013-01-13 04:42:00,36.0,31.0,30.00,ENE,77,6.0,12.0,81,0.00,,,0.06,,2013-01-13 04:42:00,
2013-01-13 04:52:00,35.0,30.0,30.00,ENE,65,3.0,16.0,81,0.00,,,0.06,,2013-01-13 04:52:00,
2013-01-13 05:03:00,35.0,30.0,30.01,East,96,3.0,12.0,82,0.00,,,0.06,,2013-01-13 05:03:00,
2013-01-13 05:12:00,35.0,30.0,30.01,East,96,3.0,12.0,82,0.00,,,0.06,,2013-01-13 05:12:00,
2013-01-13 05:22:00,35.0,30.0,30.01,ENE,64,3.0,8.0,82,0.00,,,0.06,,2013-01-13 05:22:00,
2013-01-13 05:32:00,34.0,29.0,30.02,ENE,63,3.0,6.0,82,0.00,,,0.06,,2013-01-13 05:32:00,
2013-01-13 05:42:00,34.0,29.0,30.02,ENE,63,3.0,6.0,82,0.00,,,0.06,,2013-01-13 05:42:00,
2013-01-13 05:52:00,34.0,29.0,30.02,ENE,73,3.0,8.0,83,0.00,,,0.06,,2013-01-13 05:52:00,
2013-01-13 06:02:00,34.0,29.0,30.02,ENE,77,3.0,8.0,82,0.00,,,0.06,,2013-01-13 06:02:00,
2013-01-13 06:12:00,34.0,29.0,30.02,ENE,77,3.0,8.0,82,0.00,,,0.06,,2013-01-13 06:12:00,
2013-01-13 06:22:00,34.0,29.0,30.03,NE,53,0.0,8.0,82,0.00,,,0.05,,2013-01-13 06:22:00,
2013-01-13 06:32:00,34.0,29.0,30.04,NE,43,3.0,10.0,83,0.00,,,0.05,,2013-01-13 06:32:00,
2013-01-13 06:42:00,34.0,29.0,30.04,NE,43,3.0,10.0,83,0.00,,,0.05,,2013-01-13 06:42:00,
2013-01-13 06:52:00,33.0,29.0,30.05,NE,44,3.0,8.0,84,0.00,,,0.03,,2013-01-13 06:52:00,
2013-01-13 07:02:00,33.0,29.0,30.05,NE,44,0.0,8.0,85,0.00,,,0.02,,2013-01-13 07:02:00,
2013-01-13 07:12:00,33.0,29.0,30.05,NE,44,0.0,8.0,85,0.00,,,0.02,,2013-01-13 07:12:00,
2013-01-13 07:22:00,32.0,28.0,30.06,NE,50,0.0,6.0,86,0.00,,,0.02,,2013-01-13 07:22:00,
2013-01-13 07:32:00,31.0,28.0,30.06,North,355,0.0,8.0,87,0.00,,,0.01,,2013-01-13 07:32:00,
2013-01-13 07:42:00,31.0,28.0,30.06,North,355,0.0,8.0,87,0.00,,,0.01,,2013-01-13 07:42:00,
2013-01-13 07:52:00,31.0,28.0,30.06,NE,53,3.0,6.0,88,0.00,,,0.01,,2013-01-13 07:52:00,
2013-01-13 08:02:00,31.0,28.0,30.07,NE,49,3.0,6.0,88,0.00,,,0.01,,2013-01-13 08:02:00,
2013-01-13 08:11:00,31.0,28.0,30.07,NE,49,3.0,6.0,88,0.00,,,0.01,,2013-01-13 08:11:00,
2013-01-13 08:22:00,30.0,27.0,30.07,NE,34,3.0,6.0,90,0.00,,,0.01,,2013-01-13 08:22:00,
2013-01-13 08:32:00,30.0,27.0,30.07,NNE,27,0.0,6.0,90,0.00,,,0.01,,2013-01-13 08:32:00,
2013-01-13 08:42:00,30.0,27.0,30.07,NNE,27,0.0,6.0,90,0.00,,,0.01,,2013-01-13 08:42:00,
2013-01-13 08:52:00,30.0,27.0,30.08,NE,37,0.0,8.0,90,0.00,,,0.01,,2013-01-13 08:52:00,
2013-01-13 09:02:00,30.0,28.0,30.08,ENE,58,0.0,8.0,91,0.00,,,0.01,,2013-01-13 09:02:00,
2013-01-13 09:11:00,30.0,28.0,30.09,NE,43,0.0,4.0,91,0.00,,,0.01,,2013-01-13 09:11:00,
2013-01-13 09:22:00,30.0,28.0,30.09,NE,43,0.0,4.0,91,0.00,,,0.01,,2013-01-13 09:22:00,
2013-01-13 09:32:00,31.0,29.0,30.09,NE,39,0.0,6.0,92,0.00,,,0.01,,2013-01-13 09:32:00,
2013-01-13 09:42:00,31.0,29.0,30.09,NE,39,0.0,6.0,92,0.00,,,0.01,,2013-01-13 09:42:00,
2013-01-13 09:52:00,31.0,29.0,30.09,NE,53,0.0,6.0,91,0.00,,,0.01,,2013-01-13 09:52:00,
2013-01-13 10:02:00,32.0,29.0,30.09,ENE,58,3.0,8.0,90,0.00,,,0.01,,2013-01-13 10:02:00,
2013-01-13 10:11:00,32.0,29.0,30.09,ENE,58,3.0,8.0,90,0.00,,,0.01,,2013-01-13 10:11:00,
2013-01-13 10:22:00,34.0,30.0,30.10,NE,37,3.0,14.0,86,0.00,,,0.01,,2013-01-13 10:22:00,
2013-01-13 10:32:00,34.0,30.0,30.10,NE,42,3.0,10.0,85,0.00,,,0.01,,2013-01-13 10:32:00,
2013-01-13 10:42:00,34.0,30.0,30.10,NE,42,3.0,10.0,85,0.00,,,0.01,,2013-01-13 10:42:00,
2013-01-13 10:52:00,34.0,30.0,30.10,NE,45,3.0,6.0,85,0.00,,,0.01,,2013-01-13 10:52:00,
2013-01-13 11:02:00,36.0,32.0,30.10,NE,44,3.0,14.0,84,0.00,,,0.00,,2013-01-13 11:02:00,
2013-01-13 11:11:00,36.0,32.0,30.10,NE,44,3.0,14.0,84,0.00,,,0.00,,2013-01-13 11:11:00,
2013-01-13 11:22:00,36.0,31.0,30.10,NE,50,3.0,12.0,83,0.00,,,0.00,,2013-01-13 11:22:00,
2013-01-13 11:32:00,37.0,32.0,30.10,NE,41,3.0,14.0,82,0.00,,,0.00,,2013-01-13 11:32:00,
2013-01-13 11:42:00,37.0,32.0,30.10,NE,41,3.0,14.0,82,0.00,,,0.00,,2013-01-13 11:42:00,
2013-01-13 11:52:00,38.0,32.0,30.09,NNE,28,3.0,10.0,80,0.00,,,0.00,,2013-01-13 11:52:00,
2013-01-13 12:02:00,37.0,32.0,30.10,NE,46,3.0,12.0,82,0.00,,,0.00,,2013-01-13 12:02:00,
2013-01-13 12:12:00,37.0,32.0,30.10,NE,46,3.0,12.0,82,0.00,,,0.00,,2013-01-13 12:12:00,
2013-01-13 12:22:00,36.0,32.0,30.09,NE,42,0.0,4.0,85,0.00,,,0.00,,2013-01-13 12:22:00,
2013-01-13 12:32:00,36.0,32.0,30.09,NE,38,3.0,8.0,85,0.00,,,0.00,,2013-01-13 12:32:00,
2013-01-13 12:42:00,36.0,32.0,30.09,NE,38,3.0,8.0,85,0.00,,,0.00,,2013-01-13 12:42:00,
2013-01-13 12:53:00,36.0,32.0,30.09,NNE,28,0.0,4.0,85,0.00,,,0.00,,2013-01-13 12:53:00,
2013-01-13 13:02:00,36.0,32.0,30.09,NE,48,0.0,6.0,85,0.00,,,0.00,,2013-01-13 13:02:00,
2013-01-13 13:12:00,36.0,32.0,30.09,NE,48,0.0,6.0,85,0.00,,,0.00,,2013-01-13 13:12:00,
2013-01-13 13:22:00,35.0,31.0,30.09,NE,54,0.0,6.0,86,0.00,,,0.00,,2013-01-13 13:22:00,
2013-01-13 13:32:00,35.0,31.0,30.09,NE,34,3.0,8.0,86,0.00,,,0.00,,2013-01-13 13:32:00,
2013-01-13 13:42:00,35.0,31.0,30.09,NE,34,3.0,8.0,86,0.00,,,0.00,,2013-01-13 13:42:00,
2013-01-13 13:53:00,35.0,31.0,30.09,NE,38,3.0,10.0,86,0.00,,,0.00,,2013-01-13 13:53:00,
2013-01-13 14:02:00,35.0,31.0,30.09,NE,51,0.0,6.0,86,0.00,,,0.00,,2013-01-13 14:02:00,
2013-01-13 14:12:00,35.0,31.0,30.09,NE,51,0.0,6.0,86,0.00,,,0.00,,2013-01-13 14:12:00,
2013-01-13 14:22:00,35.0,31.0,30.09,NE,37,0.0,6.0,86,0.00,,,0.00,,2013-01-13 14:22:00,
2013-01-13 14:32:00,35.0,32.0,30.09,NNE,29,0.0,4.0,87,0.00,,,0.00,,2013-01-13 14:32:00,
2013-01-13 14:42:00,35.0,32.0,30.09,NNE,29,0.0,4.0,87,0.00,,,0.00,,2013-01-13 14:42:00,
2013-01-13 14:52:00,35.0,31.0,30.09,NNE,31,0.0,4.0,86,0.00,,,0.00,,2013-01-13 14:52:00,
2013-01-13 15:02:00,35.0,31.0,30.10,NE,38,0.0,4.0,86,0.00,,,0.00,,2013-01-13 15:02:00,
2013-01-13 15:12:00,35.0,31.0,30.10,NE,38,0.0,4.0,86,0.00,,,0.00,,2013-01-13 15:12:00,
2013-01-13 15:22:00,35.0,31.0,30.10,NE,52,0.0,4.0,86,0.00,,,0.00,,2013-01-13 15:22:00,
2013-01-13 15:33:00,35.0,31.0,30.10,NE,45,0.0,4.0,85,0.00,,,0.00,,2013-01-13 15:33:00,
2013-01-13 15:42:00,35.0,31.0,30.10,NE,45,0.0,4.0,85,0.00,,,0.00,,2013-01-13 15:42:00,
2013-01-13 15:52:00,35.0,31.0,30.11,NE,49,0.0,4.0,85,0.00,,,0.00,,2013-01-13 15:52:00,
2013-01-13 16:02:00,35.0,31.0,30.11,NE,54,0.0,8.0,84,0.00,,,0.00,,2013-01-13 16:02:00,
2013-01-13 16:12:00,35.0,31.0,30.11,NE,54,0.0,8.0,84,0.00,,,0.00,,2013-01-13 16:12:00,
2013-01-13 16:22:00,34.0,30.0,30.11,ENE,62,0.0,6.0,85,0.00,,,0.00,,2013-01-13 16:22:00,
2013-01-13 16:33:00,34.0,30.0,30.11,NNE,23,0.0,2.0,86,0.00,,,0.00,,2013-01-13 16:33:00,
2013-01-13 16:42:00,34.0,30.0,30.11,NNE,23,0.0,2.0,86,0.00,,,0.00,,2013-01-13 16:42:00,
2013-01-13 16:52:00,34.0,30.0,30.12,North,7,0.0,4.0,86,0.00,,,0.00,,2013-01-13 16:52:00,
2013-01-13 17:03:00,34.0,30.0,30.12,North,9,0.0,4.0,86,0.00,,,0.00,,2013-01-13 17:03:00,
2013-01-13 17:12:00,34.0,30.0,30.12,North,9,0.0,4.0,86,0.00,,,0.00,,2013-01-13 17:12:00,
2013-01-13 17:22:00,33.0,30.0,30.12,NE,47,0.0,2.0,88,0.00,,,0.00,,2013-01-13 17:22:00,
2013-01-13 17:33:00,33.0,30.0,30.12,North,0,0.0,0.0,88,0.00,,,0.00,,2013-01-13 17:33:00,
2013-01-13 17:42:00,33.0,30.0,30.12,North,0,0.0,0.0,88,0.00,,,0.00,,2013-01-13 17:42:00,
2013-01-13 17:53:00,33.0,30.0,30.12,North,0,0.0,0.0,88,0.00,,,0.00,,2013-01-13 17:53:00,
2013-01-13 18:02:00,33.0,30.0,30.12,NE,46,0.0,2.0,89,0.00,,,0.00,,2013-01-13 18:02:00,
2013-01-13 18:12:00,33.0,30.0,30.12,NE,46,0.0,2.0,89,0.00,,,0.00,,2013-01-13 18:12:00,
2013-01-13 18:22:00,32.0,29.0,30.12,North,0,0.0,0.0,89,0.00,,,0.00,,2013-01-13 18:22:00,
2013-01-13 18:32:00,31.0,29.0,30.12,North,0,0.0,0.0,91,0.00,,,0.00,,2013-01-13 18:32:00,
2013-01-13 18:42:00,31.0,29.0,30.12,North,0,0.0,0.0,91,0.00,,,0.00,,2013-01-13 18:42:00,
2013-01-13 18:53:00,31.0,29.0,30.12,North,0,0.0,0.0,91,0.00,,,0.00,,2013-01-13 18:53:00,
2013-01-13 19:02:00,31.0,29.0,30.12,North,0,0.0,0.0,92,0.00,,,0.00,,2013-01-13 19:02:00,
2013-01-13 19:12:00,31.0,29.0,30.12,North,0,0.0,0.0,92,0.00,,,0.00,,2013-01-13 19:12:00,
2013-01-13 19:22:00,31.0,29.0,30.12,North,0,0.0,0.0,92,0.00,,,0.00,,2013-01-13 19:22:00,
2013-01-13 19:32:00,31.0,29.0,30.13,North,0,0.0,0.0,92,0.00,,,0.00,,2013-01-13 19:32:00,
2013-01-13 19:42:00,31.0,29.0,30.13,North,0,0.0,0.0,92,0.00,,,0.00,,2013-01-13 19:42:00,
2013-01-13 19:53:00,31.0,29.0,30.13,North,0,0.0,0.0,92,0.00,,,0.00,,2013-01-13 19:53:00,
2013-01-13 20:02:00,31.0,29.0,30.12,North,0,0.0,0.0,92,0.00,,,0.00,,2013-01-13 20:02:00,
2013-01-13 20:11:00,31.0,29.0,30.12,North,0,0.0,0.0,92,0.00,,,0.00,,2013-01-13 20:11:00,
2013-01-13 20:22:00,31.0,29.0,30.12,North,0,0.0,0.0,92,0.00,,,0.00,,2013-01-13 20:22:00,
2013-01-13 20:32:00,31.0,29.0,30.11,NE,46,0.0,2.0,92,0.00,,,0.00,,2013-01-13 20:32:00,
2013-01-13 20:43:00,31.0,29.0,30.11,NE,46,0.0,2.0,92,0.00,,,0.00,,2013-01-13 20:43:00,
2013-01-13 20:52:00,31.0,29.0,30.11,North,0,0.0,0.0,92,0.00,,,0.00,,2013-01-13 20:52:00,
2013-01-13 21:02:00,31.0,29.0,30.11,NE,46,0.0,2.0,92,0.00,,,0.00,,2013-01-13 21:02:00,
2013-01-13 21:12:00,31.0,29.0,30.11,NE,46,0.0,2.0,92,0.00,,,0.00,,2013-01-13 21:12:00,
2013-01-13 21:22:00,31.0,29.0,30.11,NE,46,0.0,2.0,92,0.00,,,0.00,,2013-01-13 21:22:00,
2013-01-13 21:32:00,31.0,29.0,30.11,NE,46,0.0,2.0,91,0.00,,,0.00,,2013-01-13 21:32:00,
2013-01-13 21:42:00,31.0,29.0,30.11,NE,46,0.0,2.0,91,0.00,,,0.00,,2013-01-13 21:42:00,
2013-01-13 21:53:00,31.0,29.0,30.11,NE,46,0.0,4.0,91,0.00,,,0.00,,2013-01-13 21:53:00,
2013-01-13 22:02:00,32.0,29.0,30.10,NE,47,0.0,2.0,90,0.00,,,0.00,,2013-01-13 22:02:00,
2013-01-13 22:12:00,32.0,29.0,30.10,NE,47,0.0,2.0,90,0.00,,,0.00,,2013-01-13 22:12:00,
2013-01-13 22:22:00,31.0,28.0,30.10,North,0,0.0,0.0,89,0.00,,,0.00,,2013-01-13 22:22:00,
2013-01-13 22:33:00,31.0,28.0,30.11,North,0,0.0,0.0,90,0.00,,,0.00,,2013-01-13 22:33:00,
2013-01-13 22:42:00,31.0,28.0,30.11,North,0,0.0,0.0,90,0.00,,,0.00,,2013-01-13 22:42:00,
2013-01-13 22:52:00,31.0,29.0,30.10,NE,46,0.0,2.0,91,0.00,,,0.00,,2013-01-13 22:52:00,
2013-01-13 23:02:00,31.0,29.0,30.10,North,0,0.0,0.0,91,0.00,,,0.00,,2013-01-13 23:02:00,
2013-01-13 23:12:00,31.0,29.0,30.10,North,0,0.0,0.0,91,0.00,,,0.00,,2013-01-13 23:12:00,
2013-01-13 23:22:00,31.0,29.0,30.10,North,0,0.0,0.0,91,0.00,,,0.00,,2013-01-13 23:22:00,
2013-01-13 23:32:00,31.0,29.0,30.09,North,0,0.0,0.0,91,0.00,,,0.00,,2013-01-13 23:32:00,
2013-01-13 23:42:00,31.0,29.0,30.09,North,0,0.0,0.0,91,0.00,,,0.00,,2013-01-13 23:42:00,
2013-01-13 23:53:00,31.0,29.0,30.09,North,0,0.0,0.0,91,0.00,,,0.00,,2013-01-13 23:53:00,